Anchorage/Lake Hood Seaplane Base, Alaska
Current Conditions -  °F | °C
As of 7:53 PM on Thursday 30 Oct 2014 (Local Time) from PALH Reporting Station
Clear Clear  
Wind Chill: 25°   Ceiling: Unl
Heat Index: 25°   Visibility: 10mi
Dew Point: 17°   Wind: 0mph
Humidity: 72%   Direction: NA
Pressure: 29.41"   Gusts: NA
Location:  61.18°N, 149.97°W
Report Text: PALH 310353Z 00000KT 10SM CLR M04/M08 A2941 RMK AO2 SLP959 T10391083
Loading
Personal Weather Stations






























Interactive Weather Map New forecast layout! Learn more

10-Day Weather Forecast

Advertisements
Track Severe Weather on mobile